Year,Month,Day,Hour,Minute,Value (Times are PST for temperature in C)
2016,04,09,00,00,13.40
2016,04,09,00,01,13.40
2016,04,09,00,02,13.30
2016,04,09,00,03,13.30
2016,04,09,00,04,13.30
2016,04,09,00,05,13.30
2016,04,09,00,06,13.20
2016,04,09,00,07,13.20
2016,04,09,00,08,13.20
2016,04,09,00,09,13.20
2016,04,09,00,10,13.20
2016,04,09,00,11,13.20
2016,04,09,00,12,13.20
2016,04,09,00,13,13.20
2016,04,09,00,14,13.20
2016,04,09,00,15,13.20
2016,04,09,00,16,13.20
2016,04,09,00,17,13.20
2016,04,09,00,18,13.20
2016,04,09,00,19,13.20
2016,04,09,00,20,13.20
2016,04,09,00,21,13.20
2016,04,09,00,22,13.20
2016,04,09,00,23,13.20
2016,04,09,00,24,13.20
2016,04,09,00,25,13.20
2016,04,09,00,26,13.20
2016,04,09,00,27,13.20
2016,04,09,00,28,13.20
2016,04,09,00,29,13.10
2016,04,09,00,30,13.10
2016,04,09,00,31,13.10
2016,04,09,00,32,13.00
2016,04,09,00,33,13.00
2016,04,09,00,34,12.90
2016,04,09,00,35,12.90
2016,04,09,00,36,12.90
2016,04,09,00,37,12.80
2016,04,09,00,38,12.80
2016,04,09,00,39,12.80
2016,04,09,00,40,12.80
2016,04,09,00,41,12.70
2016,04,09,00,42,12.70
2016,04,09,00,43,12.70
2016,04,09,00,44,12.70
2016,04,09,00,45,12.70
2016,04,09,00,46,12.70
2016,04,09,00,47,12.70
2016,04,09,00,48,12.70
2016,04,09,00,49,12.70
2016,04,09,00,50,12.70
2016,04,09,00,51,12.70
2016,04,09,00,52,12.60
2016,04,09,00,53,12.60
2016,04,09,00,54,12.60
2016,04,09,00,55,12.60
2016,04,09,00,56,12.60
2016,04,09,00,57,12.60
2016,04,09,00,58,12.60
2016,04,09,00,59,12.60
2016,04,09,01,00,12.60
2016,04,09,01,01,12.60
2016,04,09,01,02,12.60
2016,04,09,01,03,12.60
2016,04,09,01,04,12.60
2016,04,09,01,05,12.60
2016,04,09,01,06,12.60
2016,04,09,01,07,12.60
2016,04,09,01,08,12.60
2016,04,09,01,09,12.60
2016,04,09,01,10,12.60
2016,04,09,01,11,12.60
2016,04,09,01,12,12.50
2016,04,09,01,13,12.50
2016,04,09,01,14,12.50
2016,04,09,01,15,12.50
2016,04,09,01,16,12.50
2016,04,09,01,17,12.50
2016,04,09,01,18,12.50
2016,04,09,01,19,12.40
2016,04,09,01,20,12.40
2016,04,09,01,21,12.40
2016,04,09,01,22,12.40
2016,04,09,01,23,12.40
2016,04,09,01,24,12.40
2016,04,09,01,25,12.30
2016,04,09,01,26,12.30
2016,04,09,01,27,12.30
2016,04,09,01,28,12.30
2016,04,09,01,29,12.30
2016,04,09,01,30,12.30
2016,04,09,01,31,12.30
2016,04,09,01,32,12.30
2016,04,09,01,33,12.30
2016,04,09,01,34,12.30
2016,04,09,01,35,12.30
2016,04,09,01,36,12.30
2016,04,09,01,37,12.30
2016,04,09,01,38,12.20
2016,04,09,01,39,12.20
2016,04,09,01,40,12.20
2016,04,09,01,41,12.20
2016,04,09,01,42,12.20
2016,04,09,01,43,12.20
2016,04,09,01,44,12.20
2016,04,09,01,45,12.20
2016,04,09,01,46,12.20
2016,04,09,01,47,12.20
2016,04,09,01,48,12.20
2016,04,09,01,49,12.10
2016,04,09,01,50,12.10
2016,04,09,01,51,12.10
2016,04,09,01,52,12.10
2016,04,09,01,53,12.10
2016,04,09,01,54,12.10
2016,04,09,01,55,12.10
2016,04,09,01,56,12.10
2016,04,09,01,57,12.10
2016,04,09,01,58,12.10
2016,04,09,01,59,12.10
2016,04,09,02,00,12.10
2016,04,09,02,01,12.20
2016,04,09,02,02,12.20
2016,04,09,02,03,12.20
2016,04,09,02,04,12.20
2016,04,09,02,05,12.20
2016,04,09,02,06,12.20
2016,04,09,02,07,12.20
2016,04,09,02,08,12.30
2016,04,09,02,09,12.30
2016,04,09,02,10,12.30
2016,04,09,02,11,12.30
2016,04,09,02,12,12.30
2016,04,09,02,13,12.30
2016,04,09,02,14,12.30
2016,04,09,02,15,12.30
2016,04,09,02,16,12.30
2016,04,09,02,17,12.30
2016,04,09,02,18,12.30
2016,04,09,02,19,12.30
2016,04,09,02,20,12.30
2016,04,09,02,21,12.40
2016,04,09,02,22,12.40
2016,04,09,02,23,12.40
2016,04,09,02,24,12.40
2016,04,09,02,25,12.40
2016,04,09,02,26,12.40
2016,04,09,02,27,12.40
2016,04,09,02,28,12.40
2016,04,09,02,29,12.40
2016,04,09,02,30,12.40
2016,04,09,02,31,12.40
2016,04,09,02,32,12.40
2016,04,09,02,33,12.40
2016,04,09,02,34,12.40
2016,04,09,02,35,12.40
2016,04,09,02,36,12.30
2016,04,09,02,37,12.30
2016,04,09,02,38,12.30
2016,04,09,02,39,12.30
2016,04,09,02,40,12.30
2016,04,09,02,41,12.20
2016,04,09,02,42,12.20
2016,04,09,02,43,12.20
2016,04,09,02,44,12.20
2016,04,09,02,45,12.20
2016,04,09,02,46,12.10
2016,04,09,02,47,12.10
2016,04,09,02,48,12.10
2016,04,09,02,49,12.10
2016,04,09,02,50,12.10
2016,04,09,02,51,12.10
2016,04,09,02,52,12.10
2016,04,09,02,53,12.10
2016,04,09,02,54,12.10
2016,04,09,02,55,12.00
2016,04,09,02,56,12.00
2016,04,09,02,57,12.00
2016,04,09,02,58,12.00
2016,04,09,02,59,12.00
2016,04,09,03,00,12.00
2016,04,09,03,01,12.00
2016,04,09,03,02,12.00
2016,04,09,03,03,12.00
2016,04,09,03,04,11.90
2016,04,09,03,05,11.90
2016,04,09,03,06,11.90
2016,04,09,03,07,11.90
2016,04,09,03,08,11.90
2016,04,09,03,09,11.90
2016,04,09,03,10,11.90
2016,04,09,03,11,11.90
2016,04,09,03,12,11.90
2016,04,09,03,13,11.80
2016,04,09,03,14,11.80
2016,04,09,03,15,11.80
2016,04,09,03,16,11.80
2016,04,09,03,17,11.70
2016,04,09,03,18,11.70
2016,04,09,03,19,11.70
2016,04,09,03,20,11.70
2016,04,09,03,21,11.70
2016,04,09,03,22,11.60
2016,04,09,03,23,11.60
2016,04,09,03,24,11.60
2016,04,09,03,25,11.60
2016,04,09,03,26,11.60
2016,04,09,03,27,11.50
2016,04,09,03,28,11.50
2016,04,09,03,29,11.50
2016,04,09,03,30,11.50
2016,04,09,03,31,11.50
2016,04,09,03,32,11.50
2016,04,09,03,33,11.40
2016,04,09,03,34,11.40
2016,04,09,03,35,11.40
2016,04,09,03,36,11.40
2016,04,09,03,37,11.40
2016,04,09,03,38,11.40
2016,04,09,03,39,11.30
2016,04,09,03,40,11.30
2016,04,09,03,41,11.30
2016,04,09,03,42,11.30
2016,04,09,03,43,11.30
2016,04,09,03,44,11.20
2016,04,09,03,45,11.20
2016,04,09,03,46,11.20
2016,04,09,03,47,11.20
2016,04,09,03,48,11.10
2016,04,09,03,49,11.10
2016,04,09,03,50,11.10
2016,04,09,03,51,11.10
2016,04,09,03,52,11.00
2016,04,09,03,53,11.00
2016,04,09,03,54,11.00
2016,04,09,03,55,10.90
2016,04,09,03,56,10.90
2016,04,09,03,57,10.90
2016,04,09,03,58,10.90
2016,04,09,03,59,10.80
2016,04,09,04,00,10.80
2016,04,09,04,01,10.80
2016,04,09,04,02,10.80
2016,04,09,04,03,10.80
2016,04,09,04,04,10.80
2016,04,09,04,05,10.70
2016,04,09,04,06,10.70
2016,04,09,04,07,10.70
2016,04,09,04,08,10.70
2016,04,09,04,09,10.70
2016,04,09,04,10,10.70
2016,04,09,04,11,10.70
2016,04,09,04,12,10.60
2016,04,09,04,13,10.60
2016,04,09,04,14,10.60
2016,04,09,04,15,10.60
2016,04,09,04,16,10.60
2016,04,09,04,17,10.60
2016,04,09,04,18,10.60
2016,04,09,04,19,10.60
2016,04,09,04,20,10.50
2016,04,09,04,21,10.50
2016,04,09,04,22,10.50
2016,04,09,04,23,10.50
2016,04,09,04,24,10.50
2016,04,09,04,25,10.50
2016,04,09,04,26,10.60
2016,04,09,04,27,10.60
2016,04,09,04,28,10.50
2016,04,09,04,29,10.50
2016,04,09,04,30,10.50
2016,04,09,04,31,10.50
2016,04,09,04,32,10.50
2016,04,09,04,33,10.50
2016,04,09,04,34,10.50
2016,04,09,04,35,10.50
2016,04,09,04,36,10.50
2016,04,09,04,37,10.50
2016,04,09,04,38,10.50
2016,04,09,04,39,10.50
2016,04,09,04,40,10.50
2016,04,09,04,41,10.50
2016,04,09,04,42,10.50
2016,04,09,04,43,10.50
2016,04,09,04,44,10.50
2016,04,09,04,45,10.50
2016,04,09,04,46,10.50
2016,04,09,04,47,10.50
2016,04,09,04,48,10.50
2016,04,09,04,49,10.50
2016,04,09,04,50,10.50
2016,04,09,04,51,10.50
2016,04,09,04,52,10.50
2016,04,09,04,53,10.50
2016,04,09,04,54,10.50
2016,04,09,04,55,10.50
2016,04,09,04,56,10.50
2016,04,09,04,57,10.40
2016,04,09,04,58,10.40
2016,04,09,04,59,10.40
2016,04,09,05,00,10.40
2016,04,09,05,01,10.40
2016,04,09,05,02,10.40
2016,04,09,05,03,10.40
2016,04,09,05,04,10.40
2016,04,09,05,05,10.40
2016,04,09,05,06,10.40
2016,04,09,05,07,10.40
2016,04,09,05,08,10.40
2016,04,09,05,09,10.40
2016,04,09,05,10,10.40
2016,04,09,05,11,10.40
2016,04,09,05,12,10.40
2016,04,09,05,13,10.30
2016,04,09,05,14,10.30
2016,04,09,05,15,10.30
2016,04,09,05,16,10.30
2016,04,09,05,17,10.30
2016,04,09,05,18,10.30
2016,04,09,05,19,10.30
2016,04,09,05,20,10.30
2016,04,09,05,21,10.30
2016,04,09,05,22,10.30
2016,04,09,05,23,10.30
2016,04,09,05,24,10.30
2016,04,09,05,25,10.30
2016,04,09,05,26,10.30
2016,04,09,05,27,10.30
2016,04,09,05,28,10.30
2016,04,09,05,29,10.30
2016,04,09,05,30,10.30
2016,04,09,05,31,10.30
2016,04,09,05,32,10.30
2016,04,09,05,33,10.30
2016,04,09,05,34,10.30
2016,04,09,05,35,10.30
2016,04,09,05,36,10.30
2016,04,09,05,37,10.30
2016,04,09,05,38,10.30
2016,04,09,05,39,10.30
2016,04,09,05,40,10.30
2016,04,09,05,41,10.30
2016,04,09,05,42,10.30
2016,04,09,05,43,10.30
2016,04,09,05,44,10.30
2016,04,09,05,45,10.30
2016,04,09,05,46,10.30
2016,04,09,05,47,10.30
2016,04,09,05,48,10.30
2016,04,09,05,49,10.30
2016,04,09,05,50,10.30
2016,04,09,05,51,10.30
2016,04,09,05,52,10.30
2016,04,09,05,53,10.30
2016,04,09,05,54,10.30
2016,04,09,05,55,10.30
2016,04,09,05,56,10.30
2016,04,09,05,57,10.30
2016,04,09,05,58,10.30
2016,04,09,05,59,10.30
2016,04,09,06,00,10.30
2016,04,09,06,01,10.30
2016,04,09,06,02,10.30
2016,04,09,06,03,10.20
2016,04,09,06,04,10.20
2016,04,09,06,05,10.20
2016,04,09,06,06,10.20
2016,04,09,06,07,10.20
2016,04,09,06,08,10.20
2016,04,09,06,09,10.20
2016,04,09,06,10,10.20
2016,04,09,06,11,10.20
2016,04,09,06,12,10.20
2016,04,09,06,13,10.20
2016,04,09,06,14,10.20
2016,04,09,06,15,10.20
2016,04,09,06,16,10.20
2016,04,09,06,17,10.20
2016,04,09,06,18,10.20
2016,04,09,06,19,10.20
2016,04,09,06,20,10.20
2016,04,09,06,21,10.20
2016,04,09,06,22,10.20
2016,04,09,06,23,10.20
2016,04,09,06,24,10.20
2016,04,09,06,25,10.20
2016,04,09,06,26,10.20
2016,04,09,06,27,10.20
2016,04,09,06,28,10.20
2016,04,09,06,29,10.20
2016,04,09,06,30,10.20
2016,04,09,06,31,10.20
2016,04,09,06,32,10.20
2016,04,09,06,33,10.20
2016,04,09,06,34,10.20
2016,04,09,06,35,10.20
2016,04,09,06,36,10.20
2016,04,09,06,37,10.20
2016,04,09,06,38,10.20
2016,04,09,06,39,10.20
2016,04,09,06,40,10.10
2016,04,09,06,41,10.10
2016,04,09,06,42,10.10
2016,04,09,06,43,10.10
2016,04,09,06,44,10.10
2016,04,09,06,45,10.10
2016,04,09,06,46,10.10
2016,04,09,06,47,10.10
2016,04,09,06,48,10.10
2016,04,09,06,49,10.10
2016,04,09,06,50,10.10
2016,04,09,06,51,10.10
2016,04,09,06,52,10.10
2016,04,09,06,53,10.10
2016,04,09,06,54,10.00
2016,04,09,06,55,10.00
2016,04,09,06,56,10.00
2016,04,09,06,57,10.00
2016,04,09,06,58,10.00
2016,04,09,06,59,10.00
2016,04,09,07,00,10.00
2016,04,09,07,01,9.90
2016,04,09,07,02,9.90
2016,04,09,07,03,9.90
2016,04,09,07,04,9.90
2016,04,09,07,05,9.90
2016,04,09,07,06,9.90
2016,04,09,07,07,9.90
2016,04,09,07,08,9.90
2016,04,09,07,09,9.90
2016,04,09,07,10,9.90
2016,04,09,07,11,9.90
2016,04,09,07,12,9.90
2016,04,09,07,13,9.90
2016,04,09,07,14,9.90
2016,04,09,07,15,10.00
2016,04,09,07,16,10.00
2016,04,09,07,17,10.00
2016,04,09,07,18,10.10
2016,04,09,07,19,10.10
2016,04,09,07,20,10.10
2016,04,09,07,21,10.10
2016,04,09,07,22,10.20
2016,04,09,07,23,10.20
2016,04,09,07,24,10.20
2016,04,09,07,25,10.20
2016,04,09,07,26,10.20
2016,04,09,07,27,10.20
2016,04,09,07,28,10.20
2016,04,09,07,29,10.20
2016,04,09,07,30,10.20
2016,04,09,07,31,10.20
2016,04,09,07,32,10.20
2016,04,09,07,33,10.20
2016,04,09,07,34,10.20
2016,04,09,07,35,10.20
2016,04,09,07,36,10.20
2016,04,09,07,37,10.20
2016,04,09,07,38,10.20
2016,04,09,07,39,10.20
2016,04,09,07,40,10.20
2016,04,09,07,41,10.20
2016,04,09,07,42,10.20
2016,04,09,07,43,10.20
2016,04,09,07,44,10.20
2016,04,09,07,45,10.20
2016,04,09,07,46,10.20
2016,04,09,07,47,10.20
2016,04,09,07,48,10.20
2016,04,09,07,49,10.20
2016,04,09,07,50,10.20
2016,04,09,07,51,10.30
2016,04,09,07,52,10.30
2016,04,09,07,53,10.30
2016,04,09,07,54,10.30
2016,04,09,07,55,10.30
2016,04,09,07,56,10.30
2016,04,09,07,57,10.30
2016,04,09,07,58,10.30
2016,04,09,07,59,10.30
2016,04,09,08,00,10.30
2016,04,09,08,01,10.30
2016,04,09,08,02,10.30
2016,04,09,08,03,10.40
2016,04,09,08,04,10.40
2016,04,09,08,05,10.40
2016,04,09,08,06,10.40
2016,04,09,08,07,10.40
2016,04,09,08,08,10.50
2016,04,09,08,09,10.50
2016,04,09,08,10,10.50
2016,04,09,08,11,10.50
2016,04,09,08,12,10.50
2016,04,09,08,13,10.50
2016,04,09,08,14,10.50
2016,04,09,08,15,10.50
2016,04,09,08,16,10.50
2016,04,09,08,17,10.60
2016,04,09,08,18,10.50
2016,04,09,08,19,10.50
2016,04,09,08,20,10.50
2016,04,09,08,21,10.40
2016,04,09,08,22,10.40
2016,04,09,08,23,10.50
2016,04,09,08,24,10.50
2016,04,09,08,25,10.50
2016,04,09,08,26,10.50
2016,04,09,08,27,10.50
2016,04,09,08,28,10.50
2016,04,09,08,29,10.50
2016,04,09,08,30,10.50
2016,04,09,08,31,10.50
2016,04,09,08,32,10.60
2016,04,09,08,33,10.60
2016,04,09,08,34,10.60
2016,04,09,08,35,10.60
2016,04,09,08,36,10.60
2016,04,09,08,37,10.60
2016,04,09,08,38,10.60
2016,04,09,08,39,10.70
2016,04,09,08,40,10.70
2016,04,09,08,41,10.70
2016,04,09,08,42,10.70
2016,04,09,08,43,10.70
2016,04,09,08,44,10.70
2016,04,09,08,45,10.70
2016,04,09,08,46,10.80
2016,04,09,08,47,10.80
2016,04,09,08,48,10.80
2016,04,09,08,49,10.80
2016,04,09,08,50,10.80
2016,04,09,08,51,10.90
2016,04,09,08,52,10.90
2016,04,09,08,53,10.90
2016,04,09,08,54,10.90
2016,04,09,08,55,10.90
2016,04,09,08,56,11.00
2016,04,09,08,57,11.00
2016,04,09,08,58,11.10
2016,04,09,08,59,11.10
2016,04,09,09,00,11.10
2016,04,09,09,01,11.10
2016,04,09,09,02,11.10
2016,04,09,09,03,11.10
2016,04,09,09,04,11.10
2016,04,09,09,05,11.10
2016,04,09,09,06,11.10
2016,04,09,09,07,11.20
2016,04,09,09,08,11.20
2016,04,09,09,09,11.20
2016,04,09,09,10,11.20
2016,04,09,09,11,11.30
2016,04,09,09,12,11.30
2016,04,09,09,13,11.30
2016,04,09,09,14,11.20
2016,04,09,09,15,11.20
2016,04,09,09,16,11.20
2016,04,09,09,17,11.20
2016,04,09,09,18,11.30
2016,04,09,09,19,11.30
2016,04,09,09,20,11.30
2016,04,09,09,21,11.30
2016,04,09,09,22,11.30
2016,04,09,09,23,11.30
2016,04,09,09,24,11.30
2016,04,09,09,25,11.30
2016,04,09,09,26,11.30
2016,04,09,09,27,11.40
2016,04,09,09,28,11.40
2016,04,09,09,29,11.50
2016,04,09,09,30,11.50
2016,04,09,09,31,11.60
2016,04,09,09,32,11.50
2016,04,09,09,33,11.50
2016,04,09,09,34,11.50
2016,04,09,09,35,11.50
2016,04,09,09,36,11.60
2016,04,09,09,37,11.60
2016,04,09,09,38,11.60
2016,04,09,09,39,11.60
2016,04,09,09,40,11.60
2016,04,09,09,41,11.70
2016,04,09,09,42,11.70
2016,04,09,09,43,11.70
2016,04,09,09,44,11.70
2016,04,09,09,45,11.70
2016,04,09,09,46,11.70
2016,04,09,09,47,11.70
2016,04,09,09,48,11.70
2016,04,09,09,49,11.70
2016,04,09,09,50,11.70
2016,04,09,09,51,11.70
2016,04,09,09,52,11.70
2016,04,09,09,53,11.70
2016,04,09,09,54,11.80
2016,04,09,09,55,11.80
2016,04,09,09,56,11.80
2016,04,09,09,57,11.90
2016,04,09,09,58,11.90
2016,04,09,09,59,11.90
2016,04,09,10,00,11.90
2016,04,09,10,01,11.90
2016,04,09,10,02,11.90
2016,04,09,10,03,11.90
2016,04,09,10,04,12.00
2016,04,09,10,05,12.00
2016,04,09,10,06,12.00
2016,04,09,10,07,12.10
2016,04,09,10,08,12.10
2016,04,09,10,09,12.10
2016,04,09,10,10,12.20
2016,04,09,10,11,12.20
2016,04,09,10,12,12.20
2016,04,09,10,13,12.20
2016,04,09,10,14,12.20
2016,04,09,10,15,12.20
2016,04,09,10,16,12.10
2016,04,09,10,17,12.00
2016,04,09,10,18,12.00
2016,04,09,10,19,11.90
2016,04,09,10,20,11.80
2016,04,09,10,21,11.80
2016,04,09,10,22,11.70
2016,04,09,10,23,11.70
2016,04,09,10,24,11.60
2016,04,09,10,25,11.50
2016,04,09,10,26,11.50
2016,04,09,10,27,11.40
2016,04,09,10,28,11.40
2016,04,09,10,29,11.40
2016,04,09,10,30,11.40
2016,04,09,10,31,11.40
2016,04,09,10,32,11.40
2016,04,09,10,33,11.50
2016,04,09,10,34,11.50
2016,04,09,10,35,11.60
2016,04,09,10,36,11.60
2016,04,09,10,37,11.70
2016,04,09,10,38,11.70
2016,04,09,10,39,11.70
2016,04,09,10,40,11.70
2016,04,09,10,41,11.70
2016,04,09,10,42,11.70
2016,04,09,10,43,11.70
2016,04,09,10,44,11.70
2016,04,09,10,45,11.70
2016,04,09,10,46,11.80
2016,04,09,10,47,11.80
2016,04,09,10,48,11.70
2016,04,09,10,49,11.70
2016,04,09,10,50,11.70
2016,04,09,10,51,11.70
2016,04,09,10,52,11.70
2016,04,09,10,53,11.70
2016,04,09,10,54,11.70
2016,04,09,10,55,11.60
2016,04,09,10,56,11.70
2016,04,09,10,57,11.70
2016,04,09,10,58,11.70
2016,04,09,10,59,11.70
2016,04,09,11,00,11.70
2016,04,09,11,01,11.70
2016,04,09,11,02,11.80
2016,04,09,11,03,11.80
2016,04,09,11,04,11.70
2016,04,09,11,05,11.80
2016,04,09,11,06,11.80
2016,04,09,11,07,11.80
2016,04,09,11,08,11.90
2016,04,09,11,09,11.90
2016,04,09,11,10,11.90
2016,04,09,11,11,11.90
2016,04,09,11,12,11.90
2016,04,09,11,13,11.80
2016,04,09,11,14,11.80
2016,04,09,11,15,11.80
2016,04,09,11,16,11.80
2016,04,09,11,17,11.90
2016,04,09,11,18,11.90
2016,04,09,11,19,11.90
2016,04,09,11,20,11.90
2016,04,09,11,21,11.90
2016,04,09,11,22,11.90
2016,04,09,11,23,11.90
2016,04,09,11,24,12.00
2016,04,09,11,25,12.00
2016,04,09,11,26,12.00
2016,04,09,11,27,11.90
2016,04,09,11,28,11.90
2016,04,09,11,29,11.90
2016,04,09,11,30,11.90
2016,04,09,11,31,12.00
2016,04,09,11,32,12.10
2016,04,09,11,33,12.10
2016,04,09,11,34,12.10
2016,04,09,11,35,12.10
2016,04,09,11,36,12.10
2016,04,09,11,37,12.20
2016,04,09,11,38,12.30
2016,04,09,11,39,12.30
2016,04,09,11,40,12.30
2016,04,09,11,41,12.30
2016,04,09,11,42,12.20
2016,04,09,11,43,12.20
2016,04,09,11,44,12.20
2016,04,09,11,45,12.10
2016,04,09,11,46,12.10
2016,04,09,11,47,12.10
2016,04,09,11,48,12.10
2016,04,09,11,49,12.20
2016,04,09,11,50,12.30
2016,04,09,11,51,12.30
2016,04,09,11,52,12.20
2016,04,09,11,53,12.20
2016,04,09,11,54,12.20
2016,04,09,11,55,12.20
2016,04,09,11,56,12.30
2016,04,09,11,57,12.30
2016,04,09,11,58,12.30
2016,04,09,11,59,12.40
2016,04,09,12,00,12.40
2016,04,09,12,01,12.30
2016,04,09,12,02,12.40
2016,04,09,12,03,12.40
2016,04,09,12,04,12.40
2016,04,09,12,05,12.40
2016,04,09,12,06,12.50
2016,04,09,12,07,12.50
2016,04,09,12,08,12.50
2016,04,09,12,09,12.60
2016,04,09,12,10,12.60
2016,04,09,12,11,12.60
2016,04,09,12,12,12.60
2016,04,09,12,13,12.60
2016,04,09,12,14,12.70
2016,04,09,12,15,12.80
2016,04,09,12,16,12.90
2016,04,09,12,17,13.00
2016,04,09,12,18,13.10
2016,04,09,12,19,13.20
2016,04,09,12,20,13.30
2016,04,09,12,21,13.40
2016,04,09,12,22,13.40
2016,04,09,12,23,13.40
2016,04,09,12,24,13.40
2016,04,09,12,25,13.30
2016,04,09,12,26,13.30
2016,04,09,12,27,13.30
2016,04,09,12,28,13.30
2016,04,09,12,29,13.30
2016,04,09,12,30,13.40
2016,04,09,12,31,13.40
2016,04,09,12,32,13.40
2016,04,09,12,33,13.30
2016,04,09,12,34,13.10
2016,04,09,12,35,13.10
2016,04,09,12,36,13.00
2016,04,09,12,37,12.90
2016,04,09,12,38,12.90
2016,04,09,12,39,13.00
2016,04,09,12,40,13.00
2016,04,09,12,41,12.90
2016,04,09,12,42,12.90
2016,04,09,12,43,12.90
2016,04,09,12,44,12.90
2016,04,09,12,45,12.90
2016,04,09,12,46,12.90
2016,04,09,12,47,12.90
2016,04,09,12,48,12.80
2016,04,09,12,49,12.90
2016,04,09,12,50,12.90
2016,04,09,12,51,13.00
2016,04,09,12,52,13.00
2016,04,09,12,53,13.00
2016,04,09,12,54,13.00
2016,04,09,12,55,13.10
2016,04,09,12,56,13.10
2016,04,09,12,57,13.10
2016,04,09,12,58,13.20
2016,04,09,12,59,13.20
2016,04,09,13,00,13.30
2016,04,09,13,01,13.30
2016,04,09,13,02,13.40
2016,04,09,13,03,13.50
2016,04,09,13,04,13.50
2016,04,09,13,05,13.60
2016,04,09,13,06,13.60
2016,04,09,13,07,13.60
2016,04,09,13,08,13.60
2016,04,09,13,09,13.50
2016,04,09,13,10,13.50
2016,04,09,13,11,13.40
2016,04,09,13,12,13.40
2016,04,09,13,13,13.40
2016,04,09,13,14,13.40
2016,04,09,13,15,13.50
2016,04,09,13,16,13.50
2016,04,09,13,17,13.60
2016,04,09,13,18,13.70
2016,04,09,13,19,13.70
2016,04,09,13,20,13.80
2016,04,09,13,21,13.90
2016,04,09,13,22,13.90
2016,04,09,13,23,13.90
2016,04,09,13,24,13.90
2016,04,09,13,25,13.90
2016,04,09,13,26,14.00
2016,04,09,13,27,14.00
2016,04,09,13,28,14.00
2016,04,09,13,29,14.10
2016,04,09,13,30,14.10
2016,04,09,13,31,14.20
2016,04,09,13,32,14.20
2016,04,09,13,33,14.20
2016,04,09,13,34,14.20
2016,04,09,13,35,14.20
2016,04,09,13,36,14.20
2016,04,09,13,37,14.20
2016,04,09,13,38,14.10
2016,04,09,13,39,14.20
2016,04,09,13,40,14.20
2016,04,09,13,41,14.20
2016,04,09,13,42,14.20
2016,04,09,13,43,14.30
2016,04,09,13,44,14.30
2016,04,09,13,45,14.40
2016,04,09,13,46,14.40
2016,04,09,13,47,14.40
2016,04,09,13,48,14.30
2016,04,09,13,49,14.30
2016,04,09,13,50,14.30
2016,04,09,13,51,14.40
2016,04,09,13,52,14.40
2016,04,09,13,53,14.40
2016,04,09,13,54,14.50
2016,04,09,13,55,14.60
2016,04,09,13,56,14.60
2016,04,09,13,57,14.70
2016,04,09,13,58,14.70
2016,04,09,13,59,14.80
2016,04,09,14,00,14.80
2016,04,09,14,01,14.90
2016,04,09,14,02,14.90
2016,04,09,14,03,14.90
2016,04,09,14,04,14.90
2016,04,09,14,05,14.80
2016,04,09,14,06,14.90
2016,04,09,14,07,14.90
2016,04,09,14,08,14.90
2016,04,09,14,09,14.90
2016,04,09,14,10,14.80
2016,04,09,14,11,14.90
2016,04,09,14,12,14.90
2016,04,09,14,13,14.90
2016,04,09,14,14,15.00
2016,04,09,14,15,15.00
2016,04,09,14,16,15.00
2016,04,09,14,17,15.00
2016,04,09,14,18,15.00
2016,04,09,14,19,14.90
2016,04,09,14,20,15.00
2016,04,09,14,21,15.00
2016,04,09,14,22,15.10
2016,04,09,14,23,15.10
2016,04,09,14,24,15.10
2016,04,09,14,25,15.10
2016,04,09,14,26,15.10
2016,04,09,14,27,15.10
2016,04,09,14,28,15.10
2016,04,09,14,29,15.20
2016,04,09,14,30,15.10
2016,04,09,14,31,15.20
2016,04,09,14,32,15.20
2016,04,09,14,33,15.20
2016,04,09,14,34,15.20
2016,04,09,14,35,15.20
2016,04,09,14,36,15.30
2016,04,09,14,37,15.30
2016,04,09,14,38,15.30
2016,04,09,14,39,15.40
2016,04,09,14,40,15.40
2016,04,09,14,41,15.50
2016,04,09,14,42,15.60
2016,04,09,14,43,15.60
2016,04,09,14,44,15.70
2016,04,09,14,45,15.70
2016,04,09,14,46,15.70
2016,04,09,14,47,15.70
2016,04,09,14,48,15.70
2016,04,09,14,49,15.70
2016,04,09,14,50,15.70
2016,04,09,14,51,15.80
2016,04,09,14,52,15.90
2016,04,09,14,53,15.90
2016,04,09,14,54,15.90
2016,04,09,14,55,15.90
2016,04,09,14,56,15.90
2016,04,09,14,57,15.90
2016,04,09,14,58,16.00
2016,04,09,14,59,15.90
2016,04,09,15,00,15.90
2016,04,09,15,01,15.90
2016,04,09,15,02,15.90
2016,04,09,15,03,15.80
2016,04,09,15,04,15.80
2016,04,09,15,05,15.80
2016,04,09,15,06,15.70
2016,04,09,15,07,15.70
2016,04,09,15,08,15.80
2016,04,09,15,09,15.90
2016,04,09,15,10,15.90
2016,04,09,15,11,16.00
2016,04,09,15,12,16.00
2016,04,09,15,13,15.90
2016,04,09,15,14,15.90
2016,04,09,15,15,15.90
2016,04,09,15,16,15.90
2016,04,09,15,17,15.90
2016,04,09,15,18,15.90
2016,04,09,15,19,15.90
2016,04,09,15,20,15.90
2016,04,09,15,21,15.90
2016,04,09,15,22,16.00
2016,04,09,15,23,16.10
2016,04,09,15,24,16.20
2016,04,09,15,25,16.30
2016,04,09,15,26,16.30
2016,04,09,15,27,16.30
2016,04,09,15,28,16.20
2016,04,09,15,29,16.30
2016,04,09,15,30,16.30
2016,04,09,15,31,16.30
2016,04,09,15,32,16.40
2016,04,09,15,33,16.40
2016,04,09,15,34,16.40
2016,04,09,15,35,16.30
2016,04,09,15,36,16.30
2016,04,09,15,37,16.30
2016,04,09,15,38,16.30
2016,04,09,15,39,16.30
2016,04,09,15,40,16.30
2016,04,09,15,41,16.30
2016,04,09,15,42,16.30
2016,04,09,15,43,16.40
2016,04,09,15,44,16.50
2016,04,09,15,45,16.50
2016,04,09,15,46,16.60
2016,04,09,15,47,16.60
2016,04,09,15,48,16.70
2016,04,09,15,49,16.80
2016,04,09,15,50,16.80
2016,04,09,15,51,16.80
2016,04,09,15,52,16.80
2016,04,09,15,53,16.90
2016,04,09,15,54,16.90
2016,04,09,15,55,17.00
2016,04,09,15,56,17.00
2016,04,09,15,57,17.10
2016,04,09,15,58,17.10
2016,04,09,15,59,17.10
2016,04,09,16,00,17.10
2016,04,09,16,01,17.10
2016,04,09,16,02,17.10
2016,04,09,16,03,17.10
2016,04,09,16,04,17.10
2016,04,09,16,05,17.00
2016,04,09,16,06,16.90
2016,04,09,16,07,16.90
2016,04,09,16,08,16.90
2016,04,09,16,09,16.90
2016,04,09,16,10,16.90
2016,04,09,16,11,16.90
2016,04,09,16,12,16.90
2016,04,09,16,13,16.80
2016,04,09,16,14,16.80
2016,04,09,16,15,16.90
2016,04,09,16,16,17.00
2016,04,09,16,17,17.10
2016,04,09,16,18,17.10
2016,04,09,16,19,17.10
2016,04,09,16,20,17.00
2016,04,09,16,21,17.00
2016,04,09,16,22,16.90
2016,04,09,16,23,16.90
2016,04,09,16,24,16.90
2016,04,09,16,25,16.90
2016,04,09,16,26,16.90
2016,04,09,16,27,16.90
2016,04,09,16,28,16.90
2016,04,09,16,29,17.00
2016,04,09,16,30,17.00
2016,04,09,16,31,17.10
2016,04,09,16,32,17.10
2016,04,09,16,33,17.10
2016,04,09,16,34,17.10
2016,04,09,16,35,17.10
2016,04,09,16,36,17.00
2016,04,09,16,37,17.00
2016,04,09,16,38,17.00
2016,04,09,16,39,16.90
2016,04,09,16,40,16.90
2016,04,09,16,41,16.90
2016,04,09,16,42,16.90
2016,04,09,16,43,16.90
2016,04,09,16,44,16.90
2016,04,09,16,45,16.90
2016,04,09,16,46,16.90
2016,04,09,16,47,16.90
2016,04,09,16,48,16.90
2016,04,09,16,49,16.90
2016,04,09,16,50,16.90
2016,04,09,16,51,16.90
2016,04,09,16,52,16.90
2016,04,09,16,53,16.90
2016,04,09,16,54,16.90
2016,04,09,16,55,17.00
2016,04,09,16,56,17.00
2016,04,09,16,57,17.10
2016,04,09,16,58,17.10
2016,04,09,16,59,17.20
2016,04,09,17,00,17.20
2016,04,09,17,01,17.20
2016,04,09,17,02,17.20
2016,04,09,17,03,17.20
2016,04,09,17,04,17.10
2016,04,09,17,05,17.10
2016,04,09,17,06,17.10
2016,04,09,17,07,17.00
2016,04,09,17,08,17.00
2016,04,09,17,09,16.90
2016,04,09,17,10,17.00
2016,04,09,17,11,17.00
2016,04,09,17,12,17.10
2016,04,09,17,13,17.10
2016,04,09,17,14,17.10
2016,04,09,17,15,17.10
2016,04,09,17,16,17.10
2016,04,09,17,17,17.10
2016,04,09,17,18,17.10
2016,04,09,17,19,17.10
2016,04,09,17,20,17.00